Iowa City, IA

5:08 AM CDT on October 01, 2016 (GMT -0500)
Iowa City Municipal

Weather History for KIOW - March, 2014

Change the Weather History Date:

Wednesday, March 26, 2014

  Actual Average Record
Temperature  
Mean Temperature 30 °F 44 °F  
Max Temperature 46 °F 54 °F 84 °F (1991)
Min Temperature 13 °F 33 °F 8 °F (1964)
Degree Days  
Heating Degree Days 35 22  
Month to date heating degree days 940 716  
Since 1 July heating degree days 6733 5666  
Cooling Degree Days 0 0  
Month to date cooling degree days 0 0  
Year to date cooling degree days 0 0  
Moisture  
Dew Point 16 °F    
Average Humidity 61    
Maximum Humidity 88    
Minimum Humidity 33    
Precipitation  
Precipitation 0.03 in 0.07 in 0.84 in (2004)
Month to date precipitation 0.29 1.85  
Year to date precipitation 2.12 4.01  
Sea Level Pressure  
Sea Level Pressure 30.13 in    
Wind  
Wind Speed 12 mph (SSE)    
Max Wind Speed 29 mph    
Max Gust Speed 37 mph    
Visibility 10 miles    
Events      
T = Trace of Precipitation, MM = Missing Value Source: NWS Daily Summary

Daily Weather History Graph

Daily Weather History Graph

Search for Another Location

Airport or City:

Trip Planner

Search our weather history database for the weather conditions in past years. The results will help you decide how hot, cold, wet, or windy it might be!

Date:

Astronomy

Mar. 26, 2014 Rise Set
Actual Time 6:59 AM CDT 7:25 PM CDT
Civil Twilight 6:31 AM CDT 7:52 PM CDT
Nautical Twilight 5:58 AM CDT 8:25 PM CDT
Astronomical Twilight 5:25 AM CDT 8:59 PM CDT
Moon 4:11 AM CDT (3/26) 3:00 PM CDT (3/26)
Length of Visible Light 13h 21m
Length of Day
12h 25m
Waning Crescent, 21% of the Moon is Illuminated
Mar 26
Waning Crescent
Mar 30
New
Apr 7
First Quarter
Apr 15
Full
Apr 22
Last Quarter

Hourly Weather History & Observations

Time (CDT) Temp. Windchill Dew Point Humidity Pressure Visibility Wind Dir Wind Speed Gust Speed Precip Events Conditions
12:52 AM 15.1 °F - 10.0 °F 80% 30.31 in 10.0 mi Calm Calm - N/A   Clear
1:52 AM 14.0 °F - 10.0 °F 84% 30.31 in 10.0 mi Calm Calm - N/A   Clear
2:52 AM 15.1 °F - 10.0 °F 80% 30.31 in 10.0 mi Calm Calm - N/A   Clear
3:52 AM 15.1 °F - 10.9 °F 84% 30.30 in 10.0 mi Calm Calm - N/A   Clear
4:52 AM 15.1 °F 9.4 °F 10.9 °F 84% 30.30 in 10.0 mi SSE 3.5 mph - N/A   Clear
5:52 AM 14.0 °F 6.5 °F 10.0 °F 84% 30.29 in 10.0 mi SE 4.6 mph - N/A   Clear
6:52 AM 14.0 °F 8.2 °F 10.0 °F 84% 30.31 in 10.0 mi South 3.5 mph - N/A   Partly Cloudy
7:52 AM 18.0 °F 9.8 °F 14.0 °F 84% 30.31 in 10.0 mi SE 5.8 mph - N/A   Partly Cloudy
8:52 AM 23.0 °F 11.7 °F 15.1 °F 72% 30.27 in 10.0 mi SE 11.5 mph - N/A   Mostly Cloudy
9:52 AM 28.0 °F 16.5 °F 17.1 °F 63% 30.26 in 10.0 mi SE 15.0 mph - N/A   Clear
10:52 AM 34.0 °F 24.6 °F 17.1 °F 50% 30.24 in 10.0 mi SSE 13.8 mph - N/A   Clear
11:52 AM 37.0 °F 28.1 °F 16.0 °F 42% 30.20 in 10.0 mi South 15.0 mph - N/A   Mostly Cloudy
12:52 PM 41.0 °F 32.5 °F 17.1 °F 38% 30.16 in 10.0 mi SSE 17.3 mph - N/A   Partly Cloudy
1:52 PM 42.1 °F 32.1 °F 17.1 °F 37% 30.11 in 10.0 mi SSE 25.3 mph 29.9 mph N/A   Partly Cloudy
2:52 PM 44.1 °F 35.4 °F 18.0 °F 35% 30.04 in 10.0 mi SSE 21.9 mph 27.6 mph N/A   Partly Cloudy
3:52 PM 44.1 °F 35.7 °F 18.0 °F 35% 30.00 in 10.0 mi SSE 20.7 mph 32.2 mph N/A   Mostly Cloudy
4:52 PM 44.1 °F 36.5 °F 18.0 °F 35% 29.97 in 10.0 mi SSE 17.3 mph - N/A   Overcast
5:52 PM 44.1 °F 35.9 °F 19.0 °F 37% 29.95 in 10.0 mi SSE 19.6 mph 23.0 mph N/A   Overcast
6:52 PM 42.1 °F 34.5 °F 19.9 °F 41% 29.94 in 10.0 mi SSE 15.0 mph - N/A   Overcast
7:52 PM 41.0 °F 34.3 °F 21.0 °F 45% 29.93 in 10.0 mi SSE 11.5 mph 20.7 mph N/A   Partly Cloudy
8:52 PM 39.9 °F 33.4 °F 21.9 °F 49% 29.91 in 10.0 mi SE 10.4 mph - N/A   Overcast
9:52 PM 41.0 °F 34.3 °F 21.9 °F 47% 29.89 in 10.0 mi SSE 11.5 mph 21.9 mph N/A   Overcast
10:52 PM 41.0 °F 33.9 °F 21.9 °F 47% 29.88 in 10.0 mi SE 12.7 mph - N/A   Overcast
11:52 PM 41.0 °F 35.2 °F 23.0 °F 49% 29.87 in 10.0 mi SE 9.2 mph - N/A   Overcast